Weather Roundup
Issued by NWS Springfield, MO

Home | Current Version | Previous Version | Text Only | Print | Product List | Glossary On
Versions: 1 2 3 4 5 6 7 8 9 10 11 12 13 14 15 16 17 18 19 20 21 22 23 24 25 26 27 28 29 30 31 32 33 34 35 36 37 38 39 40 41 42 43 44 45 46 47 48 49 50
000
NZUS99 KSGF 261807
HRRSGF

HOURLY WEATHER
NATIONAL WEATHER SERVICE SPRINGFIELD MO
100 PM CDT MON JUN 26 2017

......SGF CWA......

CITY           SKY/WX    TMP DP  RH WIND       PRES   REMARKS
SPRINGFIELD    CLOUDY    72  61  68 S6        30.18F
6HR MIN TEMP:  62; 6HR MAX TEMP:  72;

JOPLIN         CLOUDY    81  65  58 S8        30.17F
6HR MIN TEMP:  65; 6HR MAX TEMP:  81;

WEST PLAINS    MOSUNNY   78  59  51 VRB7      30.21F
6HR MIN TEMP:  62; 6HR MAX TEMP:  78; 6HR PCP:  0.08;

ROLLA          SUNNY     78  50  37 VRB6      30.18F
6HR MIN TEMP:  59; 6HR MAX TEMP:  78;

OSAGE BEACH    CLOUDY    75  55  50 N3        30.18F
BRANSON        CLOUDY    77  57  50 SW6       30.22F

......SURROUNDING SGF CWA......

CITY           SKY/WX    TMP DP  RH WIND       PRES   REMARKS
CHANUTE          N/A    N/A N/A N/A MISG      30.16F
PARSONS        PTSUNNY   83  62  49 SW12G17   30.16F
COFFEYVILLE    PTSUNNY   83  62  49 W13       30.15F
EMPORIA        MOSUNNY   80  60  50 VRB5      30.15F
GROVE OK       MOSUNNY   82  63  51 SW8       30.18F
ROGERS AR      SUNNY     83  56  39 S9G17     30.20F
SILOAM SPRINGS SUNNY     82  54  36 SW9G17    30.18F
HARRISON AR    PTSUNNY   77  58  51 CALM      30.21F
NEAR YELLVILLE MOSUNNY   79  55  44 S6        30.17F

......KANSAS AND MISSOURI......

CITY           SKY/WX    TMP DP  RH WIND       PRES   REMARKS
KANSAS CTY INT CLOUDY    60  55  83 NE14      30.25R
DOWNTOWN KC    CLOUDY    63  58  83 E10G17    30.21F
COLUMBIA       CLOUDY    71  51  49 N10       30.22F
SEDALIA        LGT RAIN  64  58  80 N10       30.27R
ST JOSEPH      LGT RAIN  58  57  97 S15       30.20F FOG
ST LOUIS       PTSUNNY   79  45  29 N12       30.20F
SPIRIT OF STL  PTSUNNY   77  47  34 VRB6      30.19F
KIRKSVILLE     CLOUDY    64  55  72 S9        30.21F
WICHITA        MOSUNNY   83  61  47 SW13G21   30.14F
TOPEKA         PTSUNNY   70  56  61 E12       30.21S
OLATHE         PTSUNNY   66  54  65 E10       30.21F

......TENNESSEE......

CITY           SKY/WX    TMP DP  RH WIND       PRES   REMARKS
MEMPHIS        MOSUNNY   83  59  44 E5        30.17F
NASHVILLE      PTSUNNY   79  52  38 CALM      30.18F

......ARKANSAS.......

CITY           SKY/WX    TMP DP  RH WIND       PRES   REMARKS
FAYETTEVILLE   SUNNY     81  55  40 S12       30.19F
FT SMITH       MOSUNNY   84  62  47 SE6       30.16F
LITTLE ROCK    CLOUDY    83  61  47 E7        30.17F

......OKLAHOMA.......

CITY           SKY/WX    TMP DP  RH WIND       PRES   REMARKS
TULSA          MOSUNNY   85  58  39 S9G21     30.13F
PONCA CITY     MOSUNNY   83  58  42 SW8       30.13F
MCALESTER      PTSUNNY   81  61  50 SW7       30.17F
OKLAHOMA CITY  PTSUNNY   80  59  48 VRB7      30.16F

......IOWA............

CITY           SKY/WX    TMP DP  RH WIND       PRES   REMARKS
DES MOINES     MOSUNNY   68  55  63 W7        30.18F
QUAD CITIES    PTSUNNY   70  53  54 W14       30.14F

......ILLINOIS........

CITY           SKY/WX    TMP DP  RH WIND       PRES   REMARKS
QUINCY         CLOUDY    64  53  67 SW6       30.22F
CHICAGO        PTSUNNY   70  43  37 NW18G24   30.06F




USA.gov is the U.S. government's official web portal to all federal, state and local government web resources and services.